Year,Month,Day,Hour,Minute,Value (Times are PST for temperature in C)
2012,04,24,00,00,11.70
2012,04,24,00,01,11.60
2012,04,24,00,02,11.60
2012,04,24,00,03,11.50
2012,04,24,00,04,11.50
2012,04,24,00,05,11.40
2012,04,24,00,06,11.40
2012,04,24,00,07,11.40
2012,04,24,00,08,11.30
2012,04,24,00,09,11.30
2012,04,24,00,10,11.30
2012,04,24,00,11,11.20
2012,04,24,00,12,11.20
2012,04,24,00,13,11.20
2012,04,24,00,14,11.20
2012,04,24,00,15,11.10
2012,04,24,00,16,11.10
2012,04,24,00,17,11.10
2012,04,24,00,18,11.10
2012,04,24,00,19,11.10
2012,04,24,00,20,11.10
2012,04,24,00,21,11.00
2012,04,24,00,22,11.00
2012,04,24,00,23,11.00
2012,04,24,00,24,10.90
2012,04,24,00,25,10.90
2012,04,24,00,26,10.90
2012,04,24,00,27,10.90
2012,04,24,00,28,10.90
2012,04,24,00,29,10.80
2012,04,24,00,30,10.80
2012,04,24,00,31,10.80
2012,04,24,00,32,10.80
2012,04,24,00,33,10.80
2012,04,24,00,34,10.80
2012,04,24,00,35,10.70
2012,04,24,00,36,10.70
2012,04,24,00,37,10.70
2012,04,24,00,38,10.70
2012,04,24,00,39,10.70
2012,04,24,00,40,10.70
2012,04,24,00,41,10.60
2012,04,24,00,42,10.60
2012,04,24,00,43,10.60
2012,04,24,00,44,10.60
2012,04,24,00,45,10.60
2012,04,24,00,46,10.60
2012,04,24,00,47,10.60
2012,04,24,00,48,10.60
2012,04,24,00,49,10.60
2012,04,24,00,50,10.60
2012,04,24,00,51,10.50
2012,04,24,00,52,10.50
2012,04,24,00,53,10.50
2012,04,24,00,54,10.50
2012,04,24,00,55,10.50
2012,04,24,00,56,10.50
2012,04,24,00,57,10.50
2012,04,24,00,58,10.50
2012,04,24,00,59,10.40
2012,04,24,01,00,10.40
2012,04,24,01,01,10.40
2012,04,24,01,02,10.40
2012,04,24,01,03,10.40
2012,04,24,01,04,10.40
2012,04,24,01,05,10.40
2012,04,24,01,06,10.40
2012,04,24,01,07,10.40
2012,04,24,01,08,10.40
2012,04,24,01,09,10.40
2012,04,24,01,10,10.40
2012,04,24,01,11,10.40
2012,04,24,01,12,10.40
2012,04,24,01,13,10.40
2012,04,24,01,14,10.40
2012,04,24,01,15,10.40
2012,04,24,01,16,10.40
2012,04,24,01,17,10.40
2012,04,24,01,18,10.40
2012,04,24,01,19,10.40
2012,04,24,01,20,10.40
2012,04,24,01,21,10.40
2012,04,24,01,22,10.40
2012,04,24,01,23,10.40
2012,04,24,01,24,10.40
2012,04,24,01,25,10.40
2012,04,24,01,26,10.40
2012,04,24,01,27,10.40
2012,04,24,01,28,10.40
2012,04,24,01,29,10.40
2012,04,24,01,30,10.40
2012,04,24,01,31,10.40
2012,04,24,01,32,10.40
2012,04,24,01,33,10.40
2012,04,24,01,34,10.40
2012,04,24,01,35,10.40
2012,04,24,01,36,10.40
2012,04,24,01,37,10.40
2012,04,24,01,38,10.40
2012,04,24,01,39,10.40
2012,04,24,01,40,10.40
2012,04,24,01,41,10.40
2012,04,24,01,42,10.40
2012,04,24,01,43,10.40
2012,04,24,01,44,10.40
2012,04,24,01,45,10.40
2012,04,24,01,46,10.40
2012,04,24,01,47,10.40
2012,04,24,01,48,10.40
2012,04,24,01,49,10.40
2012,04,24,01,50,10.40
2012,04,24,01,51,10.40
2012,04,24,01,52,10.40
2012,04,24,01,53,10.40
2012,04,24,01,54,10.40
2012,04,24,01,55,10.40
2012,04,24,01,56,10.40
2012,04,24,01,57,10.40
2012,04,24,01,58,10.40
2012,04,24,01,59,10.40
2012,04,24,02,00,10.40
2012,04,24,02,01,10.40
2012,04,24,02,02,10.40
2012,04,24,02,03,10.40
2012,04,24,02,04,10.40
2012,04,24,02,05,10.30
2012,04,24,02,06,10.30
2012,04,24,02,07,10.30
2012,04,24,02,08,10.30
2012,04,24,02,09,10.30
2012,04,24,02,10,10.30
2012,04,24,02,11,10.30
2012,04,24,02,12,10.30
2012,04,24,02,13,10.30
2012,04,24,02,14,10.30
2012,04,24,02,15,10.30
2012,04,24,02,16,10.20
2012,04,24,02,17,10.20
2012,04,24,02,18,10.20
2012,04,24,02,19,10.20
2012,04,24,02,20,10.20
2012,04,24,02,21,10.20
2012,04,24,02,22,10.20
2012,04,24,02,23,10.20
2012,04,24,02,24,10.20
2012,04,24,02,25,10.20
2012,04,24,02,26,10.20
2012,04,24,02,27,10.20
2012,04,24,02,28,10.10
2012,04,24,02,29,10.10
2012,04,24,02,30,10.10
2012,04,24,02,31,10.10
2012,04,24,02,32,10.10
2012,04,24,02,33,10.10
2012,04,24,02,34,10.10
2012,04,24,02,35,10.10
2012,04,24,02,36,10.00
2012,04,24,02,37,10.00
2012,04,24,02,38,10.00
2012,04,24,02,39,10.00
2012,04,24,02,40,9.90
2012,04,24,02,41,9.90
2012,04,24,02,42,9.90
2012,04,24,02,43,9.80
2012,04,24,02,44,9.80
2012,04,24,02,45,9.80
2012,04,24,02,46,9.80
2012,04,24,02,47,9.70
2012,04,24,02,48,9.70
2012,04,24,02,49,9.70
2012,04,24,02,50,9.70
2012,04,24,02,51,9.70
2012,04,24,02,52,9.60
2012,04,24,02,53,9.60
2012,04,24,02,54,9.60
2012,04,24,02,55,9.60
2012,04,24,02,56,9.50
2012,04,24,02,57,9.50
2012,04,24,02,58,9.50
2012,04,24,02,59,9.40
2012,04,24,03,00,9.40
2012,04,24,03,01,9.40
2012,04,24,03,02,9.40
2012,04,24,03,03,9.30
2012,04,24,03,04,9.30
2012,04,24,03,05,9.30
2012,04,24,03,06,9.30
2012,04,24,03,07,9.30
2012,04,24,03,08,9.20
2012,04,24,03,09,9.20
2012,04,24,03,10,9.20
2012,04,24,03,11,9.20
2012,04,24,03,12,9.20
2012,04,24,03,13,9.10
2012,04,24,03,14,9.10
2012,04,24,03,15,9.10
2012,04,24,03,16,9.10
2012,04,24,03,17,9.00
2012,04,24,03,18,9.00
2012,04,24,03,19,9.00
2012,04,24,03,20,8.90
2012,04,24,03,21,8.90
2012,04,24,03,22,8.90
2012,04,24,03,23,8.90
2012,04,24,03,24,8.80
2012,04,24,03,25,8.80
2012,04,24,03,26,8.80
2012,04,24,03,27,8.80
2012,04,24,03,28,8.80
2012,04,24,03,29,8.80
2012,04,24,03,30,8.80
2012,04,24,03,31,8.70
2012,04,24,03,32,8.70
2012,04,24,03,33,8.70
2012,04,24,03,34,8.70
2012,04,24,03,35,8.60
2012,04,24,03,36,8.60
2012,04,24,03,37,8.60
2012,04,24,03,38,8.60
2012,04,24,03,39,8.60
2012,04,24,03,40,8.60
2012,04,24,03,41,8.60
2012,04,24,03,42,8.50
2012,04,24,03,43,8.50
2012,04,24,03,44,8.50
2012,04,24,03,45,8.50
2012,04,24,03,46,8.50
2012,04,24,03,47,8.50
2012,04,24,03,48,8.40
2012,04,24,03,49,8.40
2012,04,24,03,50,8.40
2012,04,24,03,51,8.40
2012,04,24,03,52,8.40
2012,04,24,03,53,8.30
2012,04,24,03,54,8.30
2012,04,24,03,55,8.30
2012,04,24,03,56,8.30
2012,04,24,03,57,8.30
2012,04,24,03,58,8.30
2012,04,24,03,59,8.20
2012,04,24,04,00,8.20
2012,04,24,04,01,8.20
2012,04,24,04,02,8.20
2012,04,24,04,03,8.20
2012,04,24,04,04,8.20
2012,04,24,04,05,8.10
2012,04,24,04,06,8.10
2012,04,24,04,07,8.10
2012,04,24,04,08,8.10
2012,04,24,04,09,8.10
2012,04,24,04,10,8.10
2012,04,24,04,11,8.10
2012,04,24,04,12,8.10
2012,04,24,04,13,8.00
2012,04,24,04,14,8.00
2012,04,24,04,15,8.00
2012,04,24,04,16,8.00
2012,04,24,04,17,8.00
2012,04,24,04,18,8.00
2012,04,24,04,19,8.00
2012,04,24,04,20,8.00
2012,04,24,04,21,8.00
2012,04,24,04,22,8.00
2012,04,24,04,23,8.00
2012,04,24,04,24,8.00
2012,04,24,04,25,8.00
2012,04,24,04,26,7.90
2012,04,24,04,27,7.90
2012,04,24,04,28,7.90
2012,04,24,04,29,7.90
2012,04,24,04,30,7.90
2012,04,24,04,31,7.90
2012,04,24,04,32,7.90
2012,04,24,04,33,7.80
2012,04,24,04,34,7.80
2012,04,24,04,35,7.80
2012,04,24,04,36,7.80
2012,04,24,04,37,7.80
2012,04,24,04,38,7.80
2012,04,24,04,39,7.70
2012,04,24,04,40,7.70
2012,04,24,04,41,7.70
2012,04,24,04,42,7.70
2012,04,24,04,43,7.60
2012,04,24,04,44,7.60
2012,04,24,04,45,7.60
2012,04,24,04,46,7.60
2012,04,24,04,47,7.50
2012,04,24,04,48,7.50
2012,04,24,04,49,7.50
2012,04,24,04,50,7.50
2012,04,24,04,51,7.40
2012,04,24,04,52,7.40
2012,04,24,04,53,7.40
2012,04,24,04,54,7.40
2012,04,24,04,55,7.40
2012,04,24,04,56,7.30
2012,04,24,04,57,7.30
2012,04,24,04,58,7.30
2012,04,24,04,59,7.30
2012,04,24,05,00,7.30
2012,04,24,05,01,7.30
2012,04,24,05,02,7.30
2012,04,24,05,03,7.30
2012,04,24,05,04,7.20
2012,04,24,05,05,7.20
2012,04,24,05,06,7.20
2012,04,24,05,07,7.20
2012,04,24,05,08,7.10
2012,04,24,05,09,7.10
2012,04,24,05,10,7.10
2012,04,24,05,11,7.10
2012,04,24,05,12,7.10
2012,04,24,05,13,7.00
2012,04,24,05,14,7.00
2012,04,24,05,15,7.00
2012,04,24,05,16,6.90
2012,04,24,05,17,6.90
2012,04,24,05,18,6.90
2012,04,24,05,19,6.90
2012,04,24,05,20,6.80
2012,04,24,05,21,6.80
2012,04,24,05,22,6.80
2012,04,24,05,23,6.80
2012,04,24,05,24,6.80
2012,04,24,05,25,6.70
2012,04,24,05,26,6.70
2012,04,24,05,27,6.70
2012,04,24,05,28,6.70
2012,04,24,05,29,6.70
2012,04,24,05,30,6.60
2012,04,24,05,31,6.60
2012,04,24,05,32,6.60
2012,04,24,05,33,6.60
2012,04,24,05,34,6.60
2012,04,24,05,35,6.50
2012,04,24,05,36,6.50
2012,04,24,05,37,6.50
2012,04,24,05,38,6.50
2012,04,24,05,39,6.50
2012,04,24,05,40,6.40
2012,04,24,05,41,6.40
2012,04,24,05,42,6.40
2012,04,24,05,43,6.40
2012,04,24,05,44,6.40
2012,04,24,05,45,6.40
2012,04,24,05,46,6.40
2012,04,24,05,47,6.30
2012,04,24,05,48,6.30
2012,04,24,05,49,6.30
2012,04,24,05,50,6.30
2012,04,24,05,51,6.30
2012,04,24,05,52,6.30
2012,04,24,05,53,6.30
2012,04,24,05,54,6.30
2012,04,24,05,55,6.30
2012,04,24,05,56,6.30
2012,04,24,05,57,6.30
2012,04,24,05,58,6.30
2012,04,24,05,59,6.20
2012,04,24,06,00,6.20
2012,04,24,06,01,6.20
2012,04,24,06,02,6.20
2012,04,24,06,03,6.20
2012,04,24,06,04,6.20
2012,04,24,06,05,6.20
2012,04,24,06,06,6.20
2012,04,24,06,07,6.20
2012,04,24,06,08,6.20
2012,04,24,06,09,6.20
2012,04,24,06,10,6.20
2012,04,24,06,11,6.20
2012,04,24,06,12,6.20
2012,04,24,06,13,6.20
2012,04,24,06,14,6.20
2012,04,24,06,15,6.20
2012,04,24,06,16,6.20
2012,04,24,06,17,6.20
2012,04,24,06,18,6.20
2012,04,24,06,19,6.20
2012,04,24,06,20,6.20
2012,04,24,06,21,6.20
2012,04,24,06,22,6.20
2012,04,24,06,23,6.20
2012,04,24,06,24,6.20
2012,04,24,06,25,6.20
2012,04,24,06,26,6.20
2012,04,24,06,27,6.20
2012,04,24,06,28,6.20
2012,04,24,06,29,6.20
2012,04,24,06,30,6.20
2012,04,24,06,31,6.20
2012,04,24,06,32,6.20
2012,04,24,06,33,6.20
2012,04,24,06,34,6.30
2012,04,24,06,35,6.30
2012,04,24,06,36,6.30
2012,04,24,06,37,6.30
2012,04,24,06,38,6.30
2012,04,24,06,39,6.30
2012,04,24,06,40,6.30
2012,04,24,06,41,6.30
2012,04,24,06,42,6.30
2012,04,24,06,43,6.30
2012,04,24,06,44,6.30
2012,04,24,06,45,6.30
2012,04,24,06,46,6.30
2012,04,24,06,47,6.30
2012,04,24,06,48,6.30
2012,04,24,06,49,6.30
2012,04,24,06,50,6.30
2012,04,24,06,51,6.30
2012,04,24,06,52,6.30
2012,04,24,06,53,6.30
2012,04,24,06,54,6.30
2012,04,24,06,55,6.30
2012,04,24,06,56,6.30
2012,04,24,06,57,6.30
2012,04,24,06,58,6.30
2012,04,24,06,59,6.30
2012,04,24,07,00,6.30
2012,04,24,07,01,6.30
2012,04,24,07,02,6.30
2012,04,24,07,03,6.30
2012,04,24,07,04,6.30
2012,04,24,07,05,6.30
2012,04,24,07,06,6.30
2012,04,24,07,07,6.30
2012,04,24,07,08,6.30
2012,04,24,07,09,6.30
2012,04,24,07,10,6.30
2012,04,24,07,11,6.30
2012,04,24,07,12,6.30
2012,04,24,07,13,6.30
2012,04,24,07,14,6.40
2012,04,24,07,15,6.40
2012,04,24,07,16,6.40
2012,04,24,07,17,6.40
2012,04,24,07,18,6.40
2012,04,24,07,19,6.40
2012,04,24,07,20,6.40
2012,04,24,07,21,6.50
2012,04,24,07,22,6.50
2012,04,24,07,23,6.50
2012,04,24,07,24,6.60
2012,04,24,07,25,6.60
2012,04,24,07,26,6.60
2012,04,24,07,27,6.60
2012,04,24,07,28,6.60
2012,04,24,07,29,6.70
2012,04,24,07,30,6.70
2012,04,24,07,31,6.70
2012,04,24,07,32,6.70
2012,04,24,07,33,6.70
2012,04,24,07,34,6.70
2012,04,24,07,35,6.80
2012,04,24,07,36,6.80
2012,04,24,07,37,6.80
2012,04,24,07,38,6.80
2012,04,24,07,39,6.90
2012,04,24,07,40,6.90
2012,04,24,07,41,6.90
2012,04,24,07,42,6.90
2012,04,24,07,43,7.00
2012,04,24,07,44,7.00
2012,04,24,07,45,7.10
2012,04,24,07,46,7.10
2012,04,24,07,47,7.10
2012,04,24,07,48,7.20
2012,04,24,07,49,7.20
2012,04,24,07,50,7.20
2012,04,24,07,51,7.20
2012,04,24,07,52,7.20
2012,04,24,07,53,7.30
2012,04,24,07,54,7.30
2012,04,24,07,55,7.30
2012,04,24,07,56,7.30
2012,04,24,07,57,7.30
2012,04,24,07,58,7.40
2012,04,24,07,59,7.40
2012,04,24,08,00,7.40
2012,04,24,08,01,7.40
2012,04,24,08,02,7.40
2012,04,24,08,03,7.40
2012,04,24,08,04,7.50
2012,04,24,08,05,7.50
2012,04,24,08,06,7.50
2012,04,24,08,07,7.60
2012,04,24,08,08,7.60
2012,04,24,08,09,7.60
2012,04,24,08,10,7.60
2012,04,24,08,11,7.60
2012,04,24,08,12,7.70
2012,04,24,08,13,7.70
2012,04,24,08,14,7.70
2012,04,24,08,15,7.70
2012,04,24,08,16,7.70
2012,04,24,08,17,7.70
2012,04,24,08,18,7.70
2012,04,24,08,19,7.80
2012,04,24,08,20,7.80
2012,04,24,08,21,7.80
2012,04,24,08,22,7.80
2012,04,24,08,23,7.90
2012,04,24,08,24,7.90
2012,04,24,08,25,7.90
2012,04,24,08,26,7.90
2012,04,24,08,27,8.00
2012,04,24,08,28,8.00
2012,04,24,08,29,8.10
2012,04,24,08,30,8.10
2012,04,24,08,31,8.20
2012,04,24,08,32,8.20
2012,04,24,08,33,8.30
2012,04,24,08,34,8.40
2012,04,24,08,35,8.50
2012,04,24,08,36,8.60
2012,04,24,08,37,8.60
2012,04,24,08,38,8.70
2012,04,24,08,39,8.80
2012,04,24,08,40,8.80
2012,04,24,08,41,8.90
2012,04,24,08,42,9.00
2012,04,24,08,43,9.10
2012,04,24,08,44,9.20
2012,04,24,08,45,9.30
2012,04,24,08,46,9.30
2012,04,24,08,47,9.40
2012,04,24,08,48,9.40
2012,04,24,08,49,9.50
2012,04,24,08,50,9.60
2012,04,24,08,51,9.60
2012,04,24,08,52,9.70
2012,04,24,08,53,9.80
2012,04,24,08,54,9.90
2012,04,24,08,55,10.00
2012,04,24,08,56,10.10
2012,04,24,08,57,10.20
2012,04,24,08,58,10.30
2012,04,24,08,59,10.40
2012,04,24,09,00,10.50
2012,04,24,09,01,10.70
2012,04,24,09,02,10.80
2012,04,24,09,03,10.90
2012,04,24,09,04,11.00
2012,04,24,09,05,11.10
2012,04,24,09,06,11.10
2012,04,24,09,07,11.10
2012,04,24,09,08,11.10
2012,04,24,09,09,11.20
2012,04,24,09,10,11.20
2012,04,24,09,11,11.20
2012,04,24,09,12,11.30
2012,04,24,09,13,11.30
2012,04,24,09,14,11.30
2012,04,24,09,15,11.30
2012,04,24,09,16,11.30
2012,04,24,09,17,11.30
2012,04,24,09,18,11.30
2012,04,24,09,19,11.30
2012,04,24,09,20,11.30
2012,04,24,09,21,11.40
2012,04,24,09,22,11.50
2012,04,24,09,23,11.60
2012,04,24,09,24,11.60
2012,04,24,09,25,11.70
2012,04,24,09,26,11.70
2012,04,24,09,27,11.80
2012,04,24,09,28,11.80
2012,04,24,09,29,11.90
2012,04,24,09,30,12.00
2012,04,24,09,31,12.10
2012,04,24,09,32,12.10
2012,04,24,09,33,12.20
2012,04,24,09,34,12.20
2012,04,24,09,35,12.20
2012,04,24,09,36,12.20
2012,04,24,09,37,12.10
2012,04,24,09,38,12.10
2012,04,24,09,39,12.10
2012,04,24,09,40,12.10
2012,04,24,09,41,12.10
2012,04,24,09,42,12.20
2012,04,24,09,43,12.20
2012,04,24,09,44,12.30
2012,04,24,09,45,12.40
2012,04,24,09,46,12.40
2012,04,24,09,47,12.40
2012,04,24,09,48,12.40
2012,04,24,09,49,12.40
2012,04,24,09,50,12.40
2012,04,24,09,51,12.30
2012,04,24,09,52,12.30
2012,04,24,09,53,12.30
2012,04,24,09,54,12.20
2012,04,24,09,55,12.20
2012,04,24,09,56,12.20
2012,04,24,09,57,12.20
2012,04,24,09,58,12.20
2012,04,24,09,59,12.20
2012,04,24,10,00,12.20
2012,04,24,10,01,12.20
2012,04,24,10,02,12.30
2012,04,24,10,03,12.30
2012,04,24,10,04,12.40
2012,04,24,10,05,12.40
2012,04,24,10,06,12.40
2012,04,24,10,07,12.40
2012,04,24,10,08,12.30
2012,04,24,10,09,12.30
2012,04,24,10,10,12.30
2012,04,24,10,11,12.30
2012,04,24,10,12,12.30
2012,04,24,10,13,12.20
2012,04,24,10,14,12.20
2012,04,24,10,15,12.20
2012,04,24,10,16,12.20
2012,04,24,10,17,12.10
2012,04,24,10,18,12.10
2012,04,24,10,19,12.10
2012,04,24,10,20,12.10
2012,04,24,10,21,12.00
2012,04,24,10,22,12.00
2012,04,24,10,23,11.90
2012,04,24,10,24,11.90
2012,04,24,10,25,11.80
2012,04,24,10,26,11.70
2012,04,24,10,27,11.70
2012,04,24,10,28,11.70
2012,04,24,10,29,11.70
2012,04,24,10,30,11.70
2012,04,24,10,31,11.70
2012,04,24,10,32,11.70
2012,04,24,10,33,11.70
2012,04,24,10,34,11.70
2012,04,24,10,35,11.70
2012,04,24,10,36,11.70
2012,04,24,10,37,11.70
2012,04,24,10,38,11.60
2012,04,24,10,39,11.60
2012,04,24,10,40,11.60
2012,04,24,10,41,11.60
2012,04,24,10,42,11.70
2012,04,24,10,43,11.70
2012,04,24,10,44,11.70
2012,04,24,10,45,11.70
2012,04,24,10,46,11.60
2012,04,24,10,47,11.60
2012,04,24,10,48,11.50
2012,04,24,10,49,11.50
2012,04,24,10,50,11.50
2012,04,24,10,51,11.50
2012,04,24,10,52,11.50
2012,04,24,10,53,11.50
2012,04,24,10,54,11.40
2012,04,24,10,55,11.40
2012,04,24,10,56,11.40
2012,04,24,10,57,11.40
2012,04,24,10,58,11.40
2012,04,24,10,59,11.40
2012,04,24,11,00,11.40
2012,04,24,11,01,11.40
2012,04,24,11,02,11.50
2012,04,24,11,03,11.40
2012,04,24,11,04,11.40
2012,04,24,11,05,11.50
2012,04,24,11,06,11.50
2012,04,24,11,07,11.50
2012,04,24,11,08,11.60
2012,04,24,11,09,11.60
2012,04,24,11,10,11.60
2012,04,24,11,11,11.60
2012,04,24,11,12,11.60
2012,04,24,11,13,11.60
2012,04,24,11,14,11.60
2012,04,24,11,15,11.60
2012,04,24,11,16,11.70
2012,04,24,11,17,11.70
2012,04,24,11,18,11.70
2012,04,24,11,19,11.70
2012,04,24,11,20,11.70
2012,04,24,11,21,11.70
2012,04,24,11,22,11.80
2012,04,24,11,23,11.80
2012,04,24,11,24,11.80
2012,04,24,11,25,11.80
2012,04,24,11,26,11.90
2012,04,24,11,27,11.90
2012,04,24,11,28,11.90
2012,04,24,11,29,12.00
2012,04,24,11,30,12.10
2012,04,24,11,31,12.10
2012,04,24,11,32,12.10
2012,04,24,11,33,12.20
2012,04,24,11,34,12.20
2012,04,24,11,35,12.30
2012,04,24,11,36,12.30
2012,04,24,11,37,12.30
2012,04,24,11,38,12.40
2012,04,24,11,39,12.40
2012,04,24,11,40,12.40
2012,04,24,11,41,12.50
2012,04,24,11,42,12.50
2012,04,24,11,43,12.60
2012,04,24,11,44,12.70
2012,04,24,11,45,12.80
2012,04,24,11,46,12.90
2012,04,24,11,47,13.00
2012,04,24,11,48,13.10
2012,04,24,11,49,13.20
2012,04,24,11,50,13.30
2012,04,24,11,51,13.30
2012,04,24,11,52,13.30
2012,04,24,11,53,13.40
2012,04,24,11,54,13.40
2012,04,24,11,55,13.40
2012,04,24,11,56,13.40
2012,04,24,11,57,13.50
2012,04,24,11,58,13.50
2012,04,24,11,59,13.50
2012,04,24,12,00,13.60
2012,04,24,12,01,13.60
2012,04,24,12,02,13.70
2012,04,24,12,03,13.70
2012,04,24,12,04,13.60
2012,04,24,12,05,13.70
2012,04,24,12,06,13.70
2012,04,24,12,07,13.70
2012,04,24,12,08,13.80
2012,04,24,12,09,13.90
2012,04,24,12,10,13.90
2012,04,24,12,11,14.00
2012,04,24,12,12,14.10
2012,04,24,12,13,14.20
2012,04,24,12,14,14.30
2012,04,24,12,15,14.40
2012,04,24,12,16,14.40
2012,04,24,12,17,14.50
2012,04,24,12,18,14.60
2012,04,24,12,19,14.60
2012,04,24,12,20,14.50
2012,04,24,12,21,14.50
2012,04,24,12,22,14.50
2012,04,24,12,23,14.50
2012,04,24,12,24,14.40
2012,04,24,12,25,14.40
2012,04,24,12,26,14.40
2012,04,24,12,27,14.50
2012,04,24,12,28,14.50
2012,04,24,12,29,14.50
2012,04,24,12,30,14.40
2012,04,24,12,31,14.40
2012,04,24,12,32,14.30
2012,04,24,12,33,14.30
2012,04,24,12,34,14.20
2012,04,24,12,35,14.10
2012,04,24,12,36,14.10
2012,04,24,12,37,14.10
2012,04,24,12,38,14.10
2012,04,24,12,39,14.10
2012,04,24,12,40,14.20
2012,04,24,12,41,14.20
2012,04,24,12,42,14.20
2012,04,24,12,43,14.20
2012,04,24,12,44,14.30
2012,04,24,12,45,14.30
2012,04,24,12,46,14.30
2012,04,24,12,47,14.30
2012,04,24,12,48,14.30
2012,04,24,12,49,14.30
2012,04,24,12,50,14.20
2012,04,24,12,51,14.20
2012,04,24,12,52,14.20
2012,04,24,12,53,14.20
2012,04,24,12,54,14.20
2012,04,24,12,55,14.20
2012,04,24,12,56,14.20
2012,04,24,12,57,14.20
2012,04,24,12,58,14.20
2012,04,24,12,59,14.20
2012,04,24,13,00,14.20
2012,04,24,13,01,14.20
2012,04,24,13,02,14.20
2012,04,24,13,03,14.20
2012,04,24,13,04,14.10
2012,04,24,13,05,14.10
2012,04,24,13,06,14.10
2012,04,24,13,07,14.10
2012,04,24,13,08,14.00
2012,04,24,13,09,14.00
2012,04,24,13,10,13.90
2012,04,24,13,11,13.90
2012,04,24,13,12,13.90
2012,04,24,13,13,13.90
2012,04,24,13,14,13.90
2012,04,24,13,15,13.90
2012,04,24,13,16,13.90
2012,04,24,13,17,13.90
2012,04,24,13,18,13.90
2012,04,24,13,19,13.90
2012,04,24,13,20,13.90
2012,04,24,13,21,13.90
2012,04,24,13,22,14.00
2012,04,24,13,23,13.90
2012,04,24,13,24,13.90
2012,04,24,13,25,13.90
2012,04,24,13,26,13.90
2012,04,24,13,27,13.90
2012,04,24,13,28,13.90
2012,04,24,13,29,13.90
2012,04,24,13,30,13.90
2012,04,24,13,31,13.90
2012,04,24,13,32,13.90
2012,04,24,13,33,13.90
2012,04,24,13,34,13.90
2012,04,24,13,35,13.80
2012,04,24,13,36,13.80
2012,04,24,13,37,13.80
2012,04,24,13,38,13.80
2012,04,24,13,39,13.80
2012,04,24,13,40,13.90
2012,04,24,13,41,13.90
2012,04,24,13,42,13.90
2012,04,24,13,43,13.90
2012,04,24,13,44,13.90
2012,04,24,13,45,13.90
2012,04,24,13,46,13.80
2012,04,24,13,47,13.70
2012,04,24,13,48,13.60
2012,04,24,13,49,13.60
2012,04,24,13,50,13.60
2012,04,24,13,51,13.50
2012,04,24,13,52,13.50
2012,04,24,13,53,13.50
2012,04,24,13,54,13.50
2012,04,24,13,55,13.50
2012,04,24,13,56,13.50
2012,04,24,13,57,13.50
2012,04,24,13,58,13.50
2012,04,24,13,59,13.60
2012,04,24,14,00,13.60
2012,04,24,14,01,13.60
2012,04,24,14,02,13.70
2012,04,24,14,03,13.70
2012,04,24,14,04,13.70
2012,04,24,14,05,13.80
2012,04,24,14,06,13.80
2012,04,24,14,07,13.80
2012,04,24,14,08,13.80
2012,04,24,14,09,13.80
2012,04,24,14,10,13.80
2012,04,24,14,11,13.80
2012,04,24,14,12,13.80
2012,04,24,14,13,13.80
2012,04,24,14,14,13.70
2012,04,24,14,15,13.70
2012,04,24,14,16,13.70
2012,04,24,14,17,13.70
2012,04,24,14,18,13.70
2012,04,24,14,19,13.70
2012,04,24,14,20,13.70
2012,04,24,14,21,13.70
2012,04,24,14,22,13.80
2012,04,24,14,23,13.80
2012,04,24,14,24,13.80
2012,04,24,14,25,13.80
2012,04,24,14,26,13.80
2012,04,24,14,27,13.90
2012,04,24,14,28,13.90
2012,04,24,14,29,13.80
2012,04,24,14,30,13.80
2012,04,24,14,31,13.80
2012,04,24,14,32,13.80
2012,04,24,14,33,13.70
2012,04,24,14,34,13.70
2012,04,24,14,35,13.60
2012,04,24,14,36,13.60
2012,04,24,14,37,13.60
2012,04,24,14,38,13.50
2012,04,24,14,39,13.50
2012,04,24,14,40,13.40
2012,04,24,14,41,13.40
2012,04,24,14,42,13.40
2012,04,24,14,43,13.40
2012,04,24,14,44,13.50
2012,04,24,14,45,13.50
2012,04,24,14,46,13.60
2012,04,24,14,47,13.60
2012,04,24,14,48,13.70
2012,04,24,14,49,13.70
2012,04,24,14,50,13.70
2012,04,24,14,51,13.70
2012,04,24,14,52,13.70
2012,04,24,14,53,13.70
2012,04,24,14,54,13.70
2012,04,24,14,55,13.70
2012,04,24,14,56,13.80
2012,04,24,14,57,13.80
2012,04,24,14,58,13.80
2012,04,24,14,59,13.80
2012,04,24,15,00,13.80
2012,04,24,15,01,13.80
2012,04,24,15,02,13.80
2012,04,24,15,03,13.80
2012,04,24,15,04,13.80
2012,04,24,15,05,13.80
2012,04,24,15,06,13.70
2012,04,24,15,07,13.70
2012,04,24,15,08,13.70
2012,04,24,15,09,13.70
2012,04,24,15,10,13.70
2012,04,24,15,11,13.70
2012,04,24,15,12,13.60
2012,04,24,15,13,13.60
2012,04,24,15,14,13.60
2012,04,24,15,15,13.50
2012,04,24,15,16,13.50
2012,04,24,15,17,13.40
2012,04,24,15,18,13.40
2012,04,24,15,19,13.40
2012,04,24,15,20,13.40
2012,04,24,15,21,13.30
2012,04,24,15,22,13.30
2012,04,24,15,23,13.30
2012,04,24,15,24,13.30
2012,04,24,15,25,13.30
2012,04,24,15,26,13.30
2012,04,24,15,27,13.30
2012,04,24,15,28,13.30
2012,04,24,15,29,13.30
2012,04,24,15,30,13.30
2012,04,24,15,31,13.30
2012,04,24,15,32,13.30
2012,04,24,15,33,13.30
2012,04,24,15,34,13.20
2012,04,24,15,35,13.20
2012,04,24,15,36,13.10
2012,04,24,15,37,13.00
2012,04,24,15,38,13.00
2012,04,24,15,39,12.90
2012,04,24,15,40,12.90
2012,04,24,15,41,12.90
2012,04,24,15,42,12.90
2012,04,24,15,43,12.90
2012,04,24,15,44,12.90
2012,04,24,15,45,12.90
2012,04,24,15,46,12.80
2012,04,24,15,47,12.80
2012,04,24,15,48,12.80
2012,04,24,15,49,12.80
2012,04,24,15,50,12.80
2012,04,24,15,51,12.80
2012,04,24,15,52,12.80
2012,04,24,15,53,12.80
2012,04,24,15,54,12.80
2012,04,24,15,55,12.80
2012,04,24,15,56,12.80
2012,04,24,15,57,12.80
2012,04,24,15,58,12.80
2012,04,24,15,59,12.80
2012,04,24,16,00,12.80
2012,04,24,16,01,12.80
2012,04,24,16,02,12.80
2012,04,24,16,03,12.80
2012,04,24,16,04,12.80
2012,04,24,16,05,12.80
2012,04,24,16,06,12.80
2012,04,24,16,07,12.80
2012,04,24,16,08,12.80
2012,04,24,16,09,12.80
2012,04,24,16,10,12.80
2012,04,24,16,11,12.80
2012,04,24,16,12,12.80
2012,04,24,16,13,12.80
2012,04,24,16,14,12.80
2012,04,24,16,15,12.80
2012,04,24,16,16,12.80
2012,04,24,16,17,12.80
2012,04,24,16,18,12.80
2012,04,24,16,19,12.80
2012,04,24,16,20,12.80
2012,04,24,16,21,12.70
2012,04,24,16,22,12.70
2012,04,24,16,23,12.70
2012,04,24,16,24,12.70
2012,04,24,16,25,12.70
2012,04,24,16,26,12.60
2012,04,24,16,27,12.60
2012,04,24,16,28,12.60
2012,04,24,16,29,12.60
2012,04,24,16,30,12.60
2012,04,24,16,31,12.60
2012,04,24,16,32,12.60
2012,04,24,16,33,12.60
2012,04,24,16,34,12.50
2012,04,24,16,35,12.50
2012,04,24,16,36,12.50
2012,04,24,16,37,12.50
2012,04,24,16,38,12.50
2012,04,24,16,39,12.50
2012,04,24,16,40,12.40
2012,04,24,16,41,12.40
2012,04,24,16,42,12.40
2012,04,24,16,43,12.30
2012,04,24,16,44,12.30
2012,04,24,16,45,12.30
2012,04,24,16,46,12.30
2012,04,24,16,47,12.30
2012,04,24,16,48,12.30
2012,04,24,16,49,12.30
2012,04,24,16,50,12.30
2012,04,24,16,51,12.20
2012,04,24,16,52,12.20
2012,04,24,16,53,12.20
2012,04,24,16,54,12.10
2012,04,24,16,55,12.10
2012,04,24,16,56,12.10
2012,04,24,16,57,12.00
2012,04,24,16,58,12.00
2012,04,24,16,59,12.00
2012,04,24,17,00,12.00
2012,04,24,17,01,12.00
2012,04,24,17,02,12.00
2012,04,24,17,03,12.00
2012,04,24,17,04,12.00
2012,04,24,17,05,12.00
2012,04,24,17,06,12.00
2012,04,24,17,07,12.00
2012,04,24,17,08,12.00
2012,04,24,17,09,12.00
2012,04,24,17,10,12.00
2012,04,24,17,11,12.10
2012,04,24,17,12,12.10
2012,04,24,17,13,12.10
2012,04,24,17,14,12.10
2012,04,24,17,15,12.10
2012,04,24,17,16,12.10
2012,04,24,17,17,12.10
2012,04,24,17,18,12.00
2012,04,24,17,19,12.10
2012,04,24,17,20,12.10
2012,04,24,17,21,12.00
2012,04,24,17,22,12.00
2012,04,24,17,23,12.00
2012,04,24,17,24,12.00
2012,04,24,17,25,12.00
2012,04,24,17,26,12.00
2012,04,24,17,27,12.00
2012,04,24,17,28,12.00
2012,04,24,17,29,12.00
2012,04,24,17,30,12.00
2012,04,24,17,31,12.00
2012,04,24,17,32,12.00
2012,04,24,17,33,12.00
2012,04,24,17,34,12.00
2012,04,24,17,35,12.00